map of TID home
TID - Airport
Location
City:  Tiaret, Tiaret, Algeria
Name:Abdelhafid Boussouf Bou Chekif Airport
ICAO:DAOB
IATA:TID

Details
Type:Airport (Aerodrome, Airfield)
Use:Public/Civil, International (customs port of entry)
Latitude:3520'29"N (35.341389)
Longitude:128'01"E (1.466944)
Elevation:3245 ft (989 m)
Variation:0.86E (WMM2015v2 magnetic declination)
0.13 annual change
Runways:1
Longest:9843 × 148 ft (3000 × 45 m)

Time
Time Zone:UTC+1
Local Time:

Weather
METAR:DAOB 041400Z 30011KT 9999 SCT023 06/M03 Q1025
TAF:DAOB 041100Z 0412/0512 24012KT 9999 SCT023 PROB30
TEMPO 0412/0421 24015G25KT FEW023TCU FEW026CB

Related Locations
Nearby:
Farthest:NZOP: 12142 mi / 19541 km
Opotiki, BOP, NZ

Find:

   beyond  
but within

Other Information
Maps:
NOTAMs:
Links:
Sources:

  
  • flag of Algeria
  

Sectional Chart

Flight Planning
at skyvector.com

Satellite Image

Google Maps Satellite view

 

Copyright © 2004-2019 Karl L. Swartz. All rights reserved.
The Great Circle Mapper name and logo are trademarks of the Great Circle Mapper.
All other trademarks mentioned herein belong to their respective owners.
Please see credits for attibutions and further copyright information.

  Follow gcmap on Facebook Follow gcmap on Twitter GCmap on LinkedIn

hCard Microformat

Geo Microformat